CZ-4 DEB, 35329

Orbit data source: Space-Track

CZ-4 DEB, 35329 is space debris in SSO originally from a launch on Thu, 14 Oct 1999 UTC launched from the Taiyaun Space Center, China (TSC). Debris objects in space refer to the collection of defunct objects orbiting the Earth. Examples of debris include non-operational satellites, rocket bodies, and fragments generated from explosions, collisions, or faulty payload assembly.

Loading next visibility...
Identifier
35329, 1999-057SH
Orbit
SSO
Country
Flag of CNCN / PRC
Related business
Manufacturer
Unknown
Mission
Spacecraft
Bus & Motor
Unknown
Mass
Unknown
Launch date (UTC)
1999-10-14 (26 years ago)
Launch vehicle
Unknown
Launch site
Taiyaun Space Center, China (TSC)
Object type
Payload
Rocket body
Debris
Shape & HBR
Unknown shape, 0.1 m
Radar Cross Section
Small (<0.1 m²)

Expand to show TLE details & history
Last TLE update: 1 day ago

TLE from 1 day ago
0 CZ-4 DEB
1 35329U 99057SH  25348.61804696  .00000257  00000-0  10981-3 0  9990
2 35329  98.3787 115.3345 0130703 286.9416 137.8107 14.28419068219369
Epoch: 2025-12-14T14:49Z
TLE epoch observation values (Epoch: 2025-12-14T14:49:59.257Z)
Latitude
64.51119°
Longitude
151.41092°
Altitude
878.163 km
Speed
7.383 km/s
True Right ascension
06h 29m 44s
True Declination
64° 22' 46"
Sunlit
Object was in full shadow at epoch
Visualization orbit readout
Latitude
Unknown
Longitude
Unknown
Altitude
Unknown
Speed
Unknown
Apparent Right ascension
Unknown
Apparent Declination
Unknown
Sunlit
N/A
Visualization observer readout
Local Sidereal Time
15:10:35
Azimuth
Unknown
Elevation
Unknown
Doppler factor
Unknown
Orbital elements
Apogee altitude
887.895 km
Perigee altitude
700.407 km
Semi-major axis
7,172.288 km
Eccentricity
0.01307
Inclination
98.3787°
RAAN
115.3345°
Arg. of periapsis
286.9416°
True anomaly
138.80447°
Mean anomaly
137.8107°
Eccentric anomaly
138.30879°
Mean motion
3.57319 °/min
Orbital period
100.75 mins
BSTAR
0.00010981
Loading maneuver chart data...
Computing Atmospheric mass density...
Loading historical data...
Loading historical data...
Loading historical data...
Loading historical data...
Loading historical data...
Loading historical data...
Loading historical data...

Documentation

Showing up to 5 results
|